TimeAKDT,TemperatureF,Dew PointF,Humidity,Sea Level PressureIn,VisibilityMPH,Wind Direction,Wind SpeedMPH,Gust SpeedMPH,PrecipitationIn,Events,Conditions,WindDirDegrees,DateUTC
12:16 AM,28.4,19.4,69,29.29,10.0,ENE,4.6,-,N/A,,Clear,60,2012-11-03 08:16:00
12:36 AM,28.4,17.6,64,29.30,10.0,East,5.8,-,N/A,,Clear,80,2012-11-03 08:36:00
12:56 AM,28.4,15.8,59,29.29,10.0,ENE,4.6,-,N/A,,Clear,70,2012-11-03 08:56:00
1:16 AM,28.4,15.8,59,29.30,10.0,ENE,4.6,-,N/A,,Clear,70,2012-11-03 09:16:00
1:36 AM,28.4,15.8,59,29.30,10.0,ENE,4.6,-,N/A,,Clear,60,2012-11-03 09:36:00
1:56 AM,28.4,14.0,55,29.31,10.0,Calm,Calm,-,N/A,,Clear,0,2012-11-03 09:56:00
2:16 AM,28.4,14.0,55,29.31,-9999.0,East,4.6,-,N/A,,Clear,100,2012-11-03 10:16:00
2:36 AM,28.4,14.0,55,29.30,10.0,ENE,4.6,-,N/A,,Clear,60,2012-11-03 10:36:00
2:56 AM,28.4,14.0,55,29.31,10.0,East,4.6,-,N/A,,Clear,100,2012-11-03 10:56:00
3:16 AM,28.4,15.8,59,29.30,10.0,ENE,6.9,-,N/A,,Partly Cloudy,70,2012-11-03 11:16:00
3:36 AM,26.6,15.8,64,29.30,10.0,East,5.8,-,N/A,,Scattered Clouds,100,2012-11-03 11:36:00
3:56 AM,26.6,17.6,69,29.30,10.0,East,6.9,-,N/A,,Partly Cloudy,80,2012-11-03 11:56:00
4:16 AM,26.6,17.6,69,29.30,10.0,ENE,10.4,-,N/A,,Partly Cloudy,70,2012-11-03 12:16:00
4:36 AM,26.6,17.6,69,29.30,10.0,East,8.1,-,N/A,,Mostly Cloudy,100,2012-11-03 12:36:00
4:56 AM,26.6,17.6,69,29.30,10.0,East,10.4,-,N/A,,Mostly Cloudy,100,2012-11-03 12:56:00
5:16 AM,26.6,17.6,69,29.30,10.0,ESE,8.1,-,N/A,,Overcast,110,2012-11-03 13:16:00
5:36 AM,26.6,17.6,69,29.30,10.0,East,10.4,-,N/A,,Overcast,90,2012-11-03 13:36:00
5:56 AM,24.8,17.6,74,29.30,10.0,East,9.2,-,N/A,,Mostly Cloudy,90,2012-11-03 13:56:00
6:16 AM,24.8,15.8,69,29.31,10.0,ESE,6.9,-,N/A,,Partly Cloudy,110,2012-11-03 14:16:00
6:36 AM,24.8,17.6,74,29.31,10.0,ESE,6.9,-,N/A,,Mostly Cloudy,110,2012-11-03 14:36:00
6:56 AM,24.8,17.6,74,29.30,10.0,East,8.1,-,N/A,,Scattered Clouds,100,2012-11-03 14:56:00
7:16 AM,21.2,15.8,80,29.30,10.0,East,5.8,-,N/A,,Clear,100,2012-11-03 15:16:00
7:36 AM,23.0,17.6,80,29.29,10.0,ESE,4.6,-,N/A,,Clear,110,2012-11-03 15:36:00
7:56 AM,24.8,17.6,74,29.30,10.0,East,5.8,-,N/A,,Partly Cloudy,100,2012-11-03 15:56:00
8:16 AM,26.6,17.6,69,29.30,10.0,ESE,5.8,-,N/A,,Scattered Clouds,110,2012-11-03 16:16:00
8:36 AM,24.8,17.6,74,29.30,10.0,East,6.9,-,N/A,,Overcast,100,2012-11-03 16:36:00
8:56 AM,24.8,17.6,74,29.30,10.0,ESE,5.8,-,N/A,,Overcast,110,2012-11-03 16:56:00
9:16 AM,24.8,17.6,74,29.31,10.0,East,6.9,-,N/A,,Overcast,100,2012-11-03 17:16:00
9:36 AM,26.6,17.6,69,29.31,10.0,ESE,8.1,-,N/A,,Overcast,110,2012-11-03 17:36:00
9:56 AM,24.8,17.6,74,29.31,10.0,ESE,10.4,-,N/A,,Overcast,110,2012-11-03 17:56:00
10:16 AM,24.8,17.6,74,29.31,10.0,East,8.1,-,N/A,,Overcast,100,2012-11-03 18:16:00
10:36 AM,24.8,17.6,74,29.32,10.0,ESE,6.9,-,N/A,,Overcast,120,2012-11-03 18:36:00
10:56 AM,26.6,17.6,69,29.32,10.0,ESE,8.1,-,N/A,,Mostly Cloudy,110,2012-11-03 18:56:00
11:16 AM,26.6,19.4,74,29.32,10.0,East,6.9,-,N/A,,Overcast,100,2012-11-03 19:16:00
11:36 AM,28.4,19.4,69,29.32,10.0,East,6.9,-,N/A,,Overcast,100,2012-11-03 19:36:00
11:56 AM,28.4,17.6,64,29.32,10.0,East,5.8,-,N/A,,Overcast,90,2012-11-03 19:56:00
12:16 PM,26.6,17.6,69,29.32,10.0,ESE,8.1,-,N/A,,Partly Cloudy,110,2012-11-03 20:16:00
12:36 PM,26.6,19.4,74,29.32,10.0,East,10.4,-,N/A,,Clear,100,2012-11-03 20:36:00
12:56 PM,26.6,19.4,74,29.33,10.0,East,6.9,-,N/A,,Mostly Cloudy,90,2012-11-03 20:56:00
1:16 PM,28.4,19.4,69,29.33,10.0,East,6.9,-,N/A,,Scattered Clouds,100,2012-11-03 21:16:00
1:36 PM,28.4,19.4,69,29.33,10.0,East,8.1,-,N/A,,Mostly Cloudy,100,2012-11-03 21:36:00
1:56 PM,28.4,19.4,69,29.33,10.0,East,6.9,-,N/A,,Mostly Cloudy,100,2012-11-03 21:56:00
2:16 PM,28.4,19.4,69,29.33,10.0,East,5.8,-,N/A,,Overcast,90,2012-11-03 22:16:00
2:36 PM,30.2,17.6,60,29.33,10.0,East,10.4,-,N/A,,Overcast,80,2012-11-03 22:36:00
2:56 PM,30.2,17.6,60,29.33,10.0,ENE,8.1,-,N/A,,Overcast,70,2012-11-03 22:56:00
3:16 PM,30.2,17.6,60,29.33,10.0,ENE,9.2,-,N/A,,Overcast,60,2012-11-03 23:16:00
3:36 PM,30.2,17.6,60,29.32,10.0,ENE,9.2,-,N/A,,Mostly Cloudy,70,2012-11-03 23:36:00
3:56 PM,30.2,17.6,60,29.32,10.0,ENE,9.2,-,N/A,,Overcast,70,2012-11-03 23:56:00
4:16 PM,30.2,17.6,60,29.32,10.0,East,9.2,-,N/A,,Overcast,80,2012-11-04 00:16:00
4:36 PM,30.2,17.6,60,29.32,10.0,East,8.1,-,N/A,,Overcast,80,2012-11-04 00:36:00
4:56 PM,30.2,17.6,60,29.32,10.0,East,8.1,-,N/A,,Mostly Cloudy,90,2012-11-04 00:56:00
5:16 PM,28.4,17.6,64,29.32,10.0,East,5.8,-,N/A,,Clear,80,2012-11-04 01:16:00
5:36 PM,28.4,17.6,64,29.32,10.0,East,8.1,-,N/A,,Partly Cloudy,90,2012-11-04 01:36:00
5:56 PM,28.4,17.6,64,29.32,10.0,ENE,5.8,-,N/A,,Partly Cloudy,70,2012-11-04 01:56:00
6:16 PM,28.4,17.6,64,29.32,10.0,East,6.9,-,N/A,,Mostly Cloudy,80,2012-11-04 02:16:00
6:36 PM,28.4,17.6,64,29.32,10.0,ENE,3.5,-,N/A,,Overcast,70,2012-11-04 02:36:00
6:56 PM,28.4,17.6,64,29.33,10.0,East,4.6,-,N/A,,Overcast,80,2012-11-04 02:56:00
7:16 PM,28.4,19.4,69,29.33,10.0,East,5.8,-,N/A,,Overcast,80,2012-11-04 03:16:00
7:36 PM,28.4,17.6,64,29.33,10.0,East,5.8,-,N/A,,Overcast,90,2012-11-04 03:36:00
7:56 PM,26.6,17.6,69,29.33,10.0,East,4.6,-,N/A,,Overcast,100,2012-11-04 03:56:00
8:16 PM,26.6,17.6,69,29.33,10.0,East,4.6,-,N/A,,Overcast,100,2012-11-04 04:16:00
8:36 PM,26.6,17.6,69,29.33,10.0,East,6.9,-,N/A,,Overcast,100,2012-11-04 04:36:00
8:56 PM,26.6,19.4,74,29.33,10.0,East,5.8,-,N/A,,Overcast,80,2012-11-04 04:56:00
9:16 PM,26.6,17.6,69,29.33,10.0,East,4.6,-,N/A,,Overcast,80,2012-11-04 05:16:00
9:36 PM,26.6,17.6,69,29.34,10.0,East,4.6,-,N/A,,Overcast,90,2012-11-04 05:36:00
9:56 PM,26.6,17.6,69,29.34,10.0,East,4.6,-,N/A,,Overcast,90,2012-11-04 05:56:00
10:16 PM,24.8,17.6,74,29.35,10.0,East,3.5,-,N/A,,Overcast,90,2012-11-04 06:16:00
10:36 PM,24.8,17.6,74,29.34,10.0,Calm,Calm,-,N/A,,Overcast,0,2012-11-04 06:36:00
10:56 PM,23.0,17.6,80,29.35,-9999.0,Calm,Calm,-,N/A,,Mostly Cloudy,0,2012-11-04 06:56:00
11:16 PM,21.2,17.6,86,29.35,-9999.0,Calm,Calm,-,N/A,,Unknown,0,2012-11-04 07:16:00
11:36 PM,19.4,15.8,86,29.35,-9999.0,Calm,Calm,-,N/A,,Overcast,0,2012-11-04 07:36:00
11:56 PM,21.2,17.6,86,29.35,-9999.0,ENE,3.5,-,N/A,,Unknown,60,2012-11-04 07:56:00